User: anonymous   Login
Location: Arbon
(43.0005°N, 0.7472°E)
Time: 12:12:32
(UTC+00:00)
Language:

Explorer 11/Cluster Stage 4 - Orbit

View from above orbital plane
View from above orbital plane
View from above satellite
View from above satellite

Ground track
Ground track

The orbit data is extracted from the following two-line orbital elements,

1   107U 61013A   20334.66050055 +.00000503 +00000-0 +46454-4 0  9993
2   107 028.7894 328.3518 0546448 170.2159 190.9554 14.09052999989540
Epoch (UTC): 29 November 2020 15:51:07
Eccentricity: 0.0546448
inclination: 28.7894°
perigee height: 467 km
apogee height: 1258 km
right ascension of ascending node: 328.3518°
argument of perigee: 170.2159°
revolutions per day: 14.09052999
mean anomaly at epoch: 190.9554°
orbit number at epoch: 98954

The dashed part of the orbit path shows where the satellite is in the earth's shadow,  

DLR